This demonstration page uses our WeatherBlox Daily Observations layout. Learn more.

Left ArrowRight Arrow

39.01783, -85.05884

Hourly Observations for May 12, 2019

Temp ( °F °C ) Dew Point ( °F °C ) Humidity (%) Winds ( mph kmh ) Pressure ( in mb ) Visibility ( mi km ) Precip ( " mm )
12:52 am 00:52 Cloudy with Light Rain 50 10 48 8.9 93 93 NNE 15 24 29.74 1007 8 13 0.00 0.03
1:52 am 01:52 Cloudy 49 9.4 47 8.3 93 93 NNE 14 22 29.74 1007 9 14 0.00 0.03
2:52 am 02:52 Cloudy 48 8.9 45 7.2 89 89 NE 14 22 29.72 1006 7 11 0.00 0.00
3:52 am 03:52 Cloudy with Mist and Fog 48 8.9 45 7.2 89 89 NNE 14 22 29.70 1006 6 10 0.00 0.03
4:52 am 04:52 Cloudy with Mist and Fog 47 8.3 45 7.2 93 93 NNE 13 20 29.70 1006 6 10 0.00 0.03
5:52 am 05:52 Cloudy with Drizzle 47 8.3 45 7.2 93 93 NNE 7 11 29.71 1006 3 5 0.01 0.25
6:52 am 06:52 Cloudy with Mist and Fog 48 8.9 46 7.8 93 93 VRB 5 7 29.72 1007 2 3 0.01 0.25
7:08 am 07:08 Cloudy with Mist and Fog 48 8.9 46 7.8 93 93 NNE 7 11 29.75 1008 2 2 0.00 0.00
7:52 am 07:52 Cloudy with Mist and Fog 49 9.4 46 7.8 90 90 NNE 6 9 29.73 1007 1 2 0.00 0.03
8:37 am 08:37 Cloudy with Mist and Fog 50 10 47 8.3 89 89 NNW 3 6 29.76 1008 2 3 0.00 0.00
8:52 am 08:52 Cloudy with Mist and Fog 50 10 48 8.9 93 93 NNE 3 6 29.74 1007 2 3 0.00 0.00
9:52 am 09:52 Cloudy with Mist and Fog 50 10 48 8.9 93 93 N 6 9 29.74 1007 2 3 0.00 0.00
10:39 am 10:39 Cloudy with Mist and Fog 50 10 48 8.9 93 93 NNW 8 13 29.75 1007 0 0 0.00 0.00
10:52 am 10:52 Cloudy with Mist and Fog 50 10 48 8.9 93 93 NW 8 13 29.74 1007 0 0 0.00 0.00
11:52 am 11:52 Cloudy with Mist and Fog 50 10 48 8.9 93 93 W 5 7 29.76 1008 1 2 0.00 0.00
12:52 pm 12:52 Cloudy with Light Rain 51 10.6 49 9.4 92 92 WNW 6 9 29.76 1008 1 2 0.02 0.51
1:10 pm 13:10 Cloudy with Light Rain 51 10.6 49 9.4 92 92 W 8 13 29.78 1008 3 5 0.00 0.03
1:39 pm 13:39 Cloudy 52 11.1 49 9.4 89 89 W 3 6 29.77 1008 8 13 0.00 0.03
1:52 pm 13:52 Cloudy 52 11.1 49 9.4 89 89 WNW 6 9 29.75 1008 8 13 0.00 0.03
2:52 pm 14:52 Cloudy 53 11.7 49 9.4 86 86 WNW 8 13 29.75 1007 10 16 0.00 0.00
3:52 pm 15:52 Cloudy 53 11.7 50 10 89 89 WNW 8 13 29.75 1007 10 16 0.00 0.00
4:52 pm 16:52 Cloudy with Light Rain 52 11.1 49 9.4 89 89 W 9 15 29.74 1007 10 16 0.00 0.03
5:07 pm 17:07 Cloudy with Light Rain 52 11.1 49 9.4 89 89 W 8 13 29.76 1008 3 5 0.03 0.76
5:52 pm 17:52 Cloudy with Light Rain 52 11.1 49 9.4 89 89 WSW 5 7 29.74 1007 10 16 0.03 0.76
6:07 pm 18:07 Cloudy with Heavy Rain 52 11.1 49 9.4 89 89 W 6 9 29.76 1008 2 3 0.03 0.76
6:15 pm 18:15 Cloudy with Light Rain 52 11.1 49 9.4 89 89 WSW 6 9 29.76 1008 5 8 0.03 0.76
6:52 pm 18:52 Cloudy 52 11.1 49 9.4 89 89 W 7 11 29.74 1007 10 16 0.03 0.76
7:52 pm 19:52 Cloudy 52 11.1 49 9.4 89 89 W 8 13 29.74 1007 10 16 0.00 0.00
8:52 pm 20:52 Cloudy 51 10.6 48 8.9 89 89 W 10 17 29.75 1008 7 11 0.00 0.00
9:52 pm 21:52 Cloudy with Mist and Fog 50 10 48 8.9 93 93 W 10 17 29.76 1008 4 6 0.00 0.00
10:52 pm 22:52 Cloudy 50 10 48 8.9 93 93 W 6 9 29.78 1008 7 11 0.00 0.00
11:52 pm 23:52 Cloudy with Mist and Fog 50 10 48 8.9 93 93 W 8 13 29.78 1008 4 6 0.00 0.03

Powered by AerisWeather